{"data":{"norad_id":31307,"epoch":"2026-05-25T02:52:43.157280Z","epoch_age_seconds":61333,"freshness":"FRESH","line1":"1 31307U 07016B   26145.11994395 -.00000208  00000+0  00000+0 0  9996","line2":"2 31307   2.9163  80.1810 0004463 359.8115 120.8926  1.00272585 69579","mean_motion":1.00272585,"eccentricity":0.0004463,"inclination_deg":2.9163,"raan_deg":80.181,"arg_perigee_deg":359.8115,"mean_anomaly_deg":120.8926,"bstar":0,"rev_number":6957,"period_min":1436.0854464857,"perigee_km":35767.552673857,"apogee_km":35805.188713425,"semimajor_km":42164.507693641,"source":"CELESTRAK","updated_at":"2026-05-25T13:38:14.325828Z"}}